User: anonymous   Login
Location: Unspecified
(0.0000°N, 0.0000°E)
Time: 12:17:43
(UTC+02:00)
Language:

Centaur AC-64 - Orbit

View from above orbital plane
View from above orbital plane
View from above satellite
View from above satellite

Ground track
Ground track

The orbit data is extracted from the following two-line orbital elements,

1 15874U 85055B   17145.97213531 +.00000266 +00000-0 +16468-3 0  9999
2 15874 023.1358 105.0182 6576589 176.7446 191.9812 03.19231164329743
Epoch (UTC): 25 May 2017 23:19:52
Eccentricity: 0.6576589
inclination: 23.1358°
perigee height: 292 km
apogee height: 25918 km
right ascension of ascending node: 105.0182°
argument of perigee: 176.7446°
revolutions per day: 3.19231164
mean anomaly at epoch: 191.9812°
orbit number at epoch: 32974

The dashed part of the orbit path shows where the satellite is in the earth's shadow,  

DLR